Douglas Bisbee, AZ

10:28 PM MST on April 29, 2017 (GMT -0700)
Bisbee Douglas International

Weather History for KDUG - April, 2014

Change the Weather History Date:

Thursday, April 3, 2014

  Actual Average Record
Temperature  
Mean Temperature 51 °F 58 °F  
Max Temperature 66 °F 76 °F 89 °F (1959)
Min Temperature 36 °F 40 °F 25 °F (1956)
Degree Days  
Heating Degree Days 14 7  
Month to date heating degree days 26 22  
Since 1 July heating degree days 2240 2383  
Cooling Degree Days 0 0  
Month to date cooling degree days 0 0  
Year to date cooling degree days 0 1  
Moisture  
Dew Point 10 °F    
Average Humidity 33    
Maximum Humidity 59    
Minimum Humidity 7    
Precipitation  
Precipitation 0.00 in 0.00 in 0.07 in (2004)
Month to date precipitation 0.00 0.02  
Year to date precipitation 0.44 1.91  
Sea Level Pressure  
Sea Level Pressure 29.93 in    
Wind  
Wind Speed 9 mph (NNW)    
Max Wind Speed 16 mph    
Max Gust Speed 20 mph    
Visibility 10 miles    
Events      
T = Trace of Precipitation, MM = Missing Value Source: NWS Daily Summary

Daily Weather History Graph

Daily Weather History Graph

Search for Another Location

Airport or City:

Trip Planner

Search our weather history database for the weather conditions in past years. The results will help you decide how hot, cold, wet, or windy it might be!

Date:

Astronomy

Apr. 03, 2014 Rise Set
Actual Time 6:04 AM MST 6:39 PM MST
Civil Twilight 5:39 AM MST 7:03 PM MST
Nautical Twilight 5:11 AM MST 7:32 PM MST
Astronomical Twilight 4:41 AM MST 8:01 PM MST
Moon 8:48 AM MST (4/3) 10:48 PM MST (4/3)
Length of Visible Light 13h 23m
Length of Day
12h 34m
Waxing Crescent, 18% of the Moon is Illuminated
Apr 3
Waxing Crescent
Apr 7
First Quarter
Apr 15
Full
Apr 22
Last Quarter
Apr 28
New

Hourly Weather History & Observations

Time (MST) Temp. Windchill Dew Point Humidity Pressure Visibility Wind Dir Wind Speed Gust Speed Precip Events Conditions
12:56 AM 43.0 °F 36.4 °F 17.1 °F 35% 29.82 in 10.0 mi North 12.7 mph - N/A   Clear
1:56 AM 44.1 °F 37.1 °F 26.1 °F 49% 29.83 in 10.0 mi NNW 15.0 mph - N/A   Clear
2:56 AM 42.1 °F 35.7 °F 26.1 °F 53% 29.84 in 10.0 mi NNW 11.5 mph - N/A   Clear
3:56 AM 42.1 °F 36.6 °F 26.1 °F 53% 29.86 in 10.0 mi NW 9.2 mph - N/A   Clear
4:56 AM 37.0 °F 31.0 °F 24.1 °F 59% 29.90 in 10.0 mi NNW 8.1 mph - N/A   Clear
5:56 AM 36.0 °F 28.5 °F 23.0 °F 59% 29.93 in 10.0 mi North 10.4 mph - N/A   Clear
6:56 AM 41.0 °F 35.8 °F 23.0 °F 49% 29.95 in 10.0 mi North 8.1 mph - N/A   Clear
7:56 AM 46.0 °F 41.9 °F 23.0 °F 40% 29.96 in 10.0 mi North 8.1 mph - N/A   Clear
8:56 AM 48.9 °F - 19.0 °F 31% 29.96 in 10.0 mi NNW 6.9 mph - N/A   Clear
9:56 AM 51.1 °F - 16.0 °F 25% 29.97 in 10.0 mi Variable 3.5 mph - N/A   Clear
10:56 AM 55.0 °F - 14.0 °F 20% 29.97 in 10.0 mi NNW 5.8 mph 16.1 mph N/A   Clear
11:56 AM 59.0 °F - 8.1 °F 13% 29.96 in 10.0 mi NW 10.4 mph - N/A   Clear
12:56 PM 62.1 °F - 6.1 °F 11% 29.95 in 10.0 mi NW 11.5 mph 17.3 mph N/A   Clear
1:56 PM 63.0 °F - -2.9 °F 7% 29.93 in 10.0 mi NW 8.1 mph - N/A   Clear
2:56 PM 63.0 °F - -2.9 °F 7% 29.92 in 10.0 mi North 3.5 mph - N/A   Clear
3:56 PM 64.0 °F - -2.9 °F 7% 29.91 in 10.0 mi NW 5.8 mph - N/A   Clear
4:56 PM 64.0 °F - -4.0 °F 6% 29.91 in 10.0 mi WNW 4.6 mph - N/A   Clear
5:56 PM 64.0 °F - -2.9 °F 7% 29.91 in 10.0 mi North 5.8 mph - N/A   Clear
6:56 PM 57.0 °F - -0.9 °F 9% 29.92 in 10.0 mi NNE 5.8 mph - N/A   Clear
8:56 PM 48.2 °F - -0.4 °F 13% 30.03 in 10.0 mi North 9.2 mph - N/A   Clear
9:56 PM 42.1 °F 38.4 °F -0.0 °F 17% 29.98 in 10.0 mi NW 5.8 mph - N/A   Clear
10:56 PM 41.0 °F 34.7 °F 1.0 °F 19% 29.97 in 10.0 mi NNW 10.4 mph - N/A   Clear
11:56 PM 39.0 °F 34.0 °F -0.0 °F 19% 29.98 in 10.0 mi North 6.9 mph - N/A   Clear